Disclaimer

Please do not use the information listed here in-flight or in-navigation, as they are not provided to us by the airports but are provided by volunteers, so they might be outdated.

Search


Regions


Airport information page

Radio informations:
Aerodrome flight information system (AFIS) - 118.85 MHz
RDO - 5637 MHz

Airport informations:
Latitude: 37° 25' 22.05" N
Longitude: 024° 57' 03.37" E
Elevation: 236 feet - 72 meters
Operating hours: Remarks
Operating agency: Civil government, landing fees and diplomatic clearance may be required
Timezone: UTC+2(+3DT) - Last Sunday in March to last Sunday in October
Fuel: N/A

Runway information:
18/36 - 3542 x 98 feet< - >1080 x 30 meters

Recent METARs:
LGSO 212020Z AUTO VRB01KT //// // ////// 11/08 Q1016 RE//
LGSO 212050Z AUTO VRB02KT //// // ////// 11/07 Q1017 RE//
LGSO 212120Z AUTO VRB01KT //// // ////// 11/08 Q1017 RE//

Airport on the map: